[[{"header":{"parameterUnit":"m.s-1","parameterCategory":1,"la1":30.2991,"la2":30.254,"lo1":-89.0895,"lo2":-89.0444,"dy":0.0017,"dx":0.0017,"nx":28,"ny":28,"refTime":"2025-04-17T03:00:00:Z","depth":0,"parameterNumber":2,"parameterNumberName":"U-component_of_WINDS"},"data":[0,0,0,0,0,0,0,0,0,0,0,0,0,0,0,0,0,0,0,0,0,0,0,0,0,0,0,0,0,0,0,0,0,0,0,0,0,0,0,0,0,0,0,0,0,0,0,0,0,0,0,0,0,0,0,0,0,0,-2.7875,-2.7877,0,-2.8015,-2.8016,-2.8018,-2.8059,-2.8058,-2.8058,-2.8057,-2.8201,-2.8206,-2.821,0,0,0,0,0,0,0,0,0,0,0,0,0,-2.7646,-2.765,-2.7875,-2.7877,-2.7879,-2.8015,-2.8017,-2.8018,-2.8059,-2.8058,-2.8058,-2.8057,-2.82,-2.8205,-2.8211,0,0,0,0,0,0,0,0,0,0,0,0,0,-2.7762,-2.7652,-2.7875,-2.7915,-2.792,-2.8014,-2.8017,-2.8019,-2.806,-2.8058,-2.8057,-2.8056,-2.8198,-2.8205,-2.8212,-2.8276,0,0,-2.8232,-2.8235,0,0,0,0,0,0,0,0,-2.7755,-2.777,-2.7908,-2.7913,-2.7918,-2.8018,-2.7989,-2.8105,-2.806,-2.8007,-2.8057,-2.8056,-2.8142,-2.8153,-2.8182,-2.8282,-2.8288,-2.8233,-2.8237,-2.824,-2.8242,0,0,0,0,0,0,0,-2.7747,-2.7764,-2.793,-2.791,-2.7916,-2.7927,-2.7943,-2.8011,-2.8079,-2.8011,-2.8015,-2.803,-2.8144,-2.8175,-2.8185,-2.8291,-2.8233,-2.8239,-2.8243,-2.8246,-2.8452,-2.8454,0,0,0,0,0,0,-2.7732,-2.7757,-2.7926,-2.7935,-2.7832,-2.7932,-2.7949,-2.7987,-2.8078,-2.8091,-2.8031,-2.8032,-2.8164,-2.8177,-2.8191,-2.8272,-2.824,-2.8246,-2.825,-2.8451,-2.8452,-2.8454,0,0,0,0,0,0,-2.7727,-2.7747,-2.792,-2.7847,-2.787,-2.7938,-2.798,-2.7991,-2.8021,-2.8093,-2.8106,-2.805,-2.8164,-2.8181,-2.8254,-2.8277,-2.8249,-2.8255,-2.8449,-2.8451,-2.8453,-2.8434,0,0,0,0,0,0,-2.772,-2.7744,-2.7769,-2.7847,-2.7874,-2.7981,-2.7981,-2.7994,-2.8033,-2.8035,-2.8114,-2.8126,-2.8164,-2.8244,-2.8261,-2.8286,-2.8261,-2.8447,-2.845,-2.8453,-2.8433,-2.8436,-2.8438,0,0,0,0,0,-2.7712,-2.7758,-2.777,-2.779,-2.7905,-2.7982,-2.7997,-2.804,-2.8035,-2.806,-2.8106,-2.8123,-2.8272,-2.8251,-2.8271,-2.8298,-2.8446,-2.8449,-2.8452,-2.8432,-2.8435,-2.8438,0,0,0,0,0,0,-2.7681,-2.7769,-2.7783,-2.7856,-2.7911,-2.7989,-2.8022,-2.8041,-2.81,-2.8099,-2.815,-2.8167,-2.8237,-2.8275,-2.825,-2.8366,-2.836,-2.8367,-2.8338,-2.8341,-2.8343,-2.8332,-2.8266,0,0,0,0,0,-2.7682,-2.7736,-2.7811,-2.7868,-2.7895,-2.7954,-2.7989,-2.8017,-2.8076,-2.81,-2.8152,-2.8209,-2.8269,-2.8308,-2.8367,-2.844,-2.8458,-2.8468,-2.8471,-2.8472,-2.8477,-2.852,-2.8525,-2.8464,-2.8464,-2.8464,0,0,-2.7686,-2.7741,-2.7772,-2.7863,-2.7909,-2.7965,-2.7973,-2.8032,-2.8074,-2.8109,-2.8181,-2.8221,-2.8289,-2.8363,-2.8398,-2.8397,-2.8499,-2.8476,-2.8477,-2.8482,-2.8523,-2.8529,-2.8534,-2.8467,-2.8466,-2.8466,0,0,-2.7722,-2.7768,-2.7821,-2.7868,-2.7937,-2.7976,-2.7989,-2.8064,-2.8092,-2.8165,-2.8193,-2.8245,-2.8347,-2.8394,-2.8431,-2.8486,-2.8505,-2.8505,-2.8516,-2.8556,-2.8561,-2.8565,-2.8585,-2.8592,-2.851,-2.851,-2.851,0,-2.7718,-2.7802,-2.7846,-2.7904,-2.7943,-2.7978,-2.8033,-2.8075,-2.8161,-2.8188,-2.8186,-2.8315,-2.8363,-2.8448,-2.8462,-2.8491,-2.8508,-2.8495,-2.8556,-2.8561,-2.8566,-2.8586,-2.8593,-2.8509,-2.8509,-2.8509,-2.8509,0,-2.7794,-2.7852,-2.7887,-2.7968,-2.8012,-2.8067,-2.8121,-2.816,-2.8185,-2.8224,-2.8299,-2.8359,-2.843,-2.8453,-2.8478,-2.8542,-2.854,-2.8546,-2.8541,-2.8571,-2.859,-2.8598,-2.8509,-2.8509,-2.8509,-2.8509,0,0,-2.7812,-2.7918,-2.793,-2.7968,-2.8048,-2.8094,-2.8152,-2.8222,-2.8255,-2.8314,-2.8364,-2.845,-2.8457,-2.8499,-2.853,-2.8566,-2.8606,-2.8568,-2.8571,-2.8573,-2.8681,-2.8675,-2.8683,-2.8619,-2.862,-2.8622,-2.8675,0,-2.7858,-2.7961,-2.8004,-2.8088,-2.8143,-2.8177,-2.8228,-2.8283,-2.8322,-2.8375,-2.8418,-2.8478,-2.8483,-2.8509,-2.8546,-2.8593,-2.8628,-2.859,-2.8666,-2.8668,-2.8647,-2.8693,-2.8687,-2.8734,-2.8683,-2.8684,-2.8685,0,-2.7924,-2.7983,-2.8072,-2.8146,-2.8171,-2.8215,-2.8284,-2.8334,-2.8397,-2.8423,-2.8471,-2.85,-2.8563,-2.8555,-2.8643,-2.8616,-2.865,-2.8678,-2.8681,-2.8689,-2.8678,-2.8702,-2.8751,-2.8758,-2.8698,-2.8697,-2.8696,0,-2.7929,-2.803,-2.8097,-2.8128,-2.8216,-2.8247,-2.8285,-2.8348,-2.8388,-2.8448,-2.8474,-2.8541,-2.8577,-2.8629,-2.8675,-2.8665,-2.8759,-2.8754,-2.8783,-2.8781,-2.88,-2.8798,-2.8854,-2.8823,-2.8823,-2.8823,-2.8822,0,-2.7975,-2.8028,-2.81,-2.8141,-2.8202,-2.8251,-2.8311,-2.8352,-2.8407,-2.8458,-2.8492,-2.8539,-2.8598,-2.8652,-2.8689,-2.8757,-2.8773,-2.8796,-2.8805,-2.8793,-2.879,-2.8815,-2.8813,-2.8825,-2.8824,-2.8824,-2.8823,0,-2.799,-2.804,-2.8115,-2.8193,-2.8213,-2.8255,-2.8322,-2.8364,-2.8405,-2.8468,-2.8486,-2.855,-2.8616,-2.8668,-2.8754,-2.8779,-2.885,-2.886,-2.8828,-2.8833,-2.8858,-2.8855,-2.8932,-2.8945,-2.8905,-2.8905,-2.8905,0,-2.8016,-2.8058,-2.8139,-2.8175,-2.8213,-2.8271,-2.8311,-2.8362,-2.8403,-2.8479,-2.8512,-2.858,-2.8637,-2.8742,-2.8796,-2.8863,-2.8875,-2.8897,-2.8885,-2.8871,-2.8875,-2.8872,-2.8877,-2.8899,-2.8899,-2.8899,-2.8899,0,-2.8056,-2.8079,-2.8136,-2.8202,-2.825,-2.8304,-2.8359,-2.8387,-2.8448,-2.8492,-2.856,-2.8604,-2.8693,-2.876,-2.8833,-2.8873,-2.8897,-2.8903,-2.8913,-2.89,-2.888,-2.8891,-2.8832,-2.89,-2.89,-2.89,-2.89,-2.89,-2.8078,-2.8117,-2.8181,-2.8243,-2.829,-2.8341,-2.8384,-2.843,-2.8487,-2.8563,-2.8589,-2.8659,-2.8723,-2.8822,-2.8864,-2.892,-2.8921,-2.8935,-2.8939,-2.8942,-2.894,-2.8871,-2.8933,-2.8933,-2.8933,-2.8933,-2.8933,0,-2.812,-2.8163,-2.822,-2.8296,-2.8346,-2.8363,-2.8426,-2.8466,-2.8527,-2.8584,-2.864,-2.8718,-2.8784,-2.8845,-2.8914,-2.8947,-2.896,-2.8963,-2.8961,-2.897,-2.8935,-2.8919,-2.8952,-2.8952,-2.8952,-2.8952,-2.8952,-2.8952,-2.8148,-2.8215,-2.8246,-2.8337,-2.838,-2.8448,-2.8482,-2.853,-2.8576,-2.8661,-2.8716,-2.8755,-2.8814,-2.8888,-2.895,-2.8966,-2.899,-2.8991,-2.901,-2.8976,-2.8973,-2.897,-2.8956,-2.8996,-2.8996,-2.904,-2.9041,-2.9041]},{"header":{"parameterUnit":"m.s-1","parameterCategory":1,"la1":30.2991,"la2":30.254,"lo1":-89.0895,"lo2":-89.0444,"dy":0.0017,"dx":0.0017,"nx":28,"ny":28,"refTime":"2025-04-17T03:00:00:Z","depth":0,"parameterNumber":3,"parameterNumberName":"V-component_of_WINDS"},"data":[0,0,0,0,0,0,0,0,0,0,0,0,0,0,0,0,0,0,0,0,0,0,0,0,0,0,0,0,0,0,0,0,0,0,0,0,0,0,0,0,0,0,0,0,0,0,0,0,0,0,0,0,0,0,0,0,0,0,5.9611,5.9612,0,5.9675,5.9675,5.9676,5.9637,5.9636,5.9634,5.9632,5.9693,5.9696,5.97,0,0,0,0,0,0,0,0,0,0,0,0,0,5.9452,5.9455,5.9611,5.9612,5.9612,5.9674,5.9675,5.9676,5.9638,5.9636,5.9633,5.9631,5.9692,5.9696,5.97,0,0,0,0,0,0,0,0,0,0,0,0,0,5.9519,5.9456,5.9611,5.9601,5.9601,5.9674,5.9675,5.9676,5.9638,5.9636,5.9633,5.963,5.9691,5.9696,5.9701,5.9786,0,0,5.9716,5.9718,0,0,0,0,0,0,0,0,5.9515,5.9525,5.9602,5.9602,5.9602,5.9645,5.9642,5.9713,5.9639,5.9624,5.9632,5.9629,5.9679,5.9685,5.9703,5.9789,5.9792,5.9716,5.9719,5.9721,5.9723,0,0,0,0,0,0,0,5.9511,5.9522,5.9636,5.9603,5.9603,5.9592,5.9598,5.9655,5.9666,5.9625,5.9622,5.9631,5.9679,5.9698,5.9704,5.9793,5.9716,5.9721,5.9724,5.9726,5.9952,5.9955,0,0,0,0,0,0,5.9507,5.9518,5.9634,5.9638,5.9551,5.9597,5.9604,5.9634,5.9665,5.9668,5.9633,5.9629,5.9691,5.9698,5.9706,5.9809,5.9721,5.9726,5.9729,5.9949,5.9953,5.9956,0,0,0,0,0,0,5.9504,5.9518,5.9631,5.9577,5.9591,5.9603,5.9636,5.9637,5.9656,5.9671,5.9673,5.9651,5.9689,5.9699,5.9767,5.981,5.9728,5.9733,5.9946,5.995,5.9955,6.0014,0,0,0,0,0,0,5.95,5.9517,5.9551,5.9579,5.9594,5.9693,5.9639,5.964,5.9665,5.966,5.9689,5.9691,5.9688,5.976,5.9772,5.9816,5.9737,5.9942,5.9948,5.9953,6.0009,6.002,6.0031,0,0,0,0,0,5.9494,5.9564,5.9553,5.9567,5.9636,5.9695,5.9704,5.97,5.9669,5.9702,5.9712,5.969,5.9804,5.9767,5.978,5.9826,5.9939,5.9946,5.9953,6.0004,6.0018,6.003,0,0,0,0,0,0,5.9539,5.9567,5.9555,5.9636,5.9664,5.9688,5.973,5.9715,5.9751,5.9745,5.9737,5.9744,5.9815,5.9827,5.9786,5.9911,5.9866,5.9876,5.99,5.9914,5.9925,5.9921,5.9741,0,0,0,0,0,5.9559,5.9605,5.9627,5.9696,5.9711,5.9719,5.9744,5.9739,5.9766,5.9777,5.9792,5.9819,5.986,5.9888,5.9927,6.001,6.0016,6.0048,6.0059,6.0068,6.0077,6.0122,6.0137,5.9979,5.9979,5.9979,0,0,5.9599,5.962,5.965,5.9706,5.9727,5.9774,5.9728,5.978,5.9815,5.9785,5.985,5.9862,5.9891,5.9967,6.0002,5.998,6.0122,6.0077,6.0084,6.0088,6.013,6.0145,6.0159,5.9983,5.9982,5.9982,0,0,5.9697,5.9718,5.9779,5.9801,5.9834,5.9838,5.9853,5.988,5.9887,5.9953,5.9932,5.9972,6.0044,6.0066,6.0087,6.0194,6.0175,6.0207,6.0264,6.0308,6.032,6.0331,6.037,6.0384,6.0215,6.0215,6.0215,0,5.9743,5.9815,5.9811,5.9866,5.9891,5.9867,5.9928,5.9949,5.9992,6.0009,5.9984,6.0075,6.0092,6.0174,6.02,6.0217,6.0233,6.0203,6.0319,6.033,6.034,6.0377,6.0391,6.0219,6.0219,6.0218,6.0218,0,5.987,5.992,5.9965,6.0009,6.0039,6.0096,6.01,6.013,6.0123,6.013,6.0197,6.0218,6.0261,6.028,6.0272,6.036,6.0346,6.032,6.0275,6.0359,6.0394,6.0407,6.0224,6.0223,6.0222,6.0221,0,0,5.9998,6.004,6.0057,6.0077,6.0111,6.0149,6.0205,6.0249,6.0275,6.0306,6.0352,6.0414,6.0391,6.0414,6.0408,6.0447,6.0531,6.0417,6.0418,6.0438,6.063,6.0649,6.0665,6.0519,6.0521,6.0524,6.0627,0,6.0099,6.0198,6.0196,6.0288,6.0334,6.0312,6.036,6.0386,6.0394,6.0434,6.0441,6.0486,6.0452,6.0466,6.0503,6.0513,6.057,6.0506,6.0561,6.0563,6.0555,6.0683,6.0703,6.08,6.0641,6.0643,6.0645,0,6.023,6.0266,6.0363,6.0391,6.0411,6.0454,6.0495,6.0533,6.0561,6.0564,6.0591,6.058,6.0635,6.0589,6.0665,6.0621,6.0644,6.0652,6.0656,6.0661,6.0609,6.0692,6.0831,6.0846,6.0666,6.0664,6.0662,0,6.0314,6.0387,6.0455,6.0472,6.0507,6.0538,6.0554,6.058,6.0607,6.0641,6.0658,6.0698,6.072,6.0751,6.075,6.0717,6.0828,6.0781,6.0831,6.0831,6.0856,6.0854,6.1001,6.087,6.087,6.0869,6.0869,0,6.0427,6.0487,6.0493,6.0535,6.0601,6.0598,6.0663,6.0676,6.0699,6.0742,6.0725,6.0765,6.0762,6.0802,6.0801,6.0865,6.0874,6.0878,6.0877,6.088,6.088,6.0895,6.0888,6.0873,6.0872,6.0872,6.0871,0,6.0532,6.0539,6.0611,6.0639,6.0647,6.0695,6.0717,6.0756,6.0763,6.0817,6.083,6.084,6.0887,6.0889,6.0942,6.0942,6.1019,6.1011,6.101,6.1009,6.1059,6.1054,6.1221,6.1242,6.1097,6.1098,6.1099,0,6.0604,6.065,6.0683,6.0711,6.0729,6.0774,6.0802,6.08,6.0829,6.0866,6.09,6.0946,6.0982,6.1057,6.1069,6.1109,6.1102,6.1157,6.1108,6.1109,6.1103,6.1101,6.1105,6.1167,6.1169,6.117,6.1171,0,6.0731,6.0732,6.0773,6.0816,6.085,6.0883,6.0914,6.0937,6.0939,6.0973,6.1021,6.1049,6.1105,6.115,6.119,6.1204,6.1188,6.1187,6.12,6.1204,6.1202,6.1204,6.1037,6.1183,6.1182,6.1181,6.118,6.118,6.0822,6.0862,6.0892,6.0938,6.0962,6.0991,6.1029,6.1041,6.1082,6.1128,6.1124,6.1178,6.1205,6.1257,6.1275,6.1316,6.1297,6.1317,6.1322,6.1327,6.1333,6.1195,6.1323,6.1323,6.1322,6.1322,6.1322,0,6.0948,6.0967,6.101,6.1054,6.109,6.1073,6.1107,6.1138,6.1186,6.1213,6.125,6.1305,6.1349,6.1364,6.1407,6.1437,6.143,6.1448,6.1446,6.145,6.1347,6.1331,6.1452,6.1452,6.1452,6.1452,6.1452,6.1452,6.1019,6.1086,6.1091,6.1169,6.1186,6.124,6.126,6.1287,6.1309,6.1372,6.1409,6.1419,6.1442,6.1486,6.1525,6.1528,6.1545,6.1566,6.1566,6.147,6.1457,6.1444,6.1429,6.1569,6.1569,6.1665,6.1666,6.1666]}]]